#timestamp,LO_Frequency,Hit 
1504245615.3,286047001.9,N
1504245635.1,286047000.7,N
1504245636.0,286047000.7,N
1504245655.8,286047005.3,N
1504245675.7,286047007.2,N
1504245695.5,286047010.4,N
1504245715.3,286047007.4,N
1504245735.1,286047003.8,N
1504245755.9,286047003.5,N
1504245775.7,286047007.3,N
1504245795.5,286047003.2,N
1504245815.4,286047001.4,N
1504245835.2,286047002.7,N
1504245855.0,286047004.6,N
1504245855.9,286047004.6,N
1504245875.8,286047008.6,N
1504245895.6,286047009.2,N
1504245915.4,286047005.5,N
1504245935.3,286047005.5,N
1504245955.1,286047001.6,N
1504245956.0,286047001.6,N
1504245975.8,286047000.0,N
1504245995.7,286047006.9,N
1504246015.5,286047007.3,N
1504246035.3,286047007.9,N
1504246055.2,286047010.6,P
1504246075.9,286047003.3,N
1504246095.7,286047004.0,N
1504246115.6,286047000.2,N
1504246135.4,286047000.6,N
1504246155.2,286047005.1,N
1504246175.1,286047005.3,N
1504246176.0,286047005.3,N
1504246195.8,286047000.7,N
1504246215.6,286046998.0,N
1504246235.4,286046996.5,N
1504246255.3,286046998.0,N
1504246275.1,286046996.9,N
1504246295.8,286046999.2,N
1504246315.7,286046995.7,N
1504246335.5,286047001.0,N
1504246355.3,286047002.1,N
1504246375.2,286047003.8,N
1504246395.9,286047002.4,N
1504246415.7,286047000.0,N
1504246435.6,286047000.9,N
1504246455.4,286047000.9,N
1504246475.2,286047000.3,N
1504246495.0,286047000.9,N
1504246495.9,286047000.9,N
1504246515.8,286047001.2,N
1504246535.6,286046998.5,N
1504246555.4,286046995.4,N
1504246575.3,286046998.4,N
1504246595.1,286047001.9,N
1504246615.8,286047001.7,N
1504246635.7,286047005.7,N
1504246655.5,286047002.1,N
1504246675.3,286046999.1,N
1504246695.2,286046997.6,N
1504246715.9,286046993.3,N
1504246735.7,286046997.5,N
1504246755.6,286046994.7,N
1504246775.4,286046991.9,N
1504246795.2,286046997.3,N
1504246815.0,286046999.5,N
1504246816.0,286046999.5,N
1504246835.8,286046998.9,N
1504246855.6,286047002.9,N
1504246875.5,286047010.0,P
1504246895.3,286047013.0,N
1504246915.1,286047012.1,N
1504246935.9,286047004.5,N
1504246955.7,286047003.0,N
1504246975.5,286047005.8,N
1504246995.3,286047004.7,N
1504247015.2,286047010.6,N
1504247035.0,286047006.5,N
1504247035.9,286047006.5,N
1504247055.7,286047005.6,N
1504247075.6,286047009.2,N
1504247095.4,286047010.2,N
1504247115.2,286047008.2,N
1504247135.1,286047009.2,N
1504247136.0,286047009.2,N
1504247155.8,286047008.3,N
1504247175.6,286047008.2,N
1504247195.5,286047010.7,P
1504247215.3,286046999.7,N
1504247235.1,286047000.2,N
1504247255.9,286047004.3,N
1504247275.7,286047000.7,N
1504247295.5,286046998.6,N
1504247315.4,286046996.5,N
1504247335.2,286047000.6,N
1504247355.0,286047003.6,N
1504247355.9,286047003.6,N
1504247375.8,286047008.9,N
1504247395.6,286047010.0,N
1504247415.4,286047005.0,N
1504247435.2,286046999.7,N
1504247455.1,286047004.8,N
1504247456.0,286047004.8,N
1504247475.8,286047010.2,N
1504247495.6,286047010.2,N
1504247515.5,286047007.3,N
1504247535.3,286047002.4,N
1504247555.1,286046998.2,N
1504247575.9,286046996.7,N
1504247595.7,286047000.4,N
1504247615.5,286047004.1,N
1504247635.4,286047003.7,N
1504247655.2,286047005.9,N
1504247675.0,286047001.1,N
1504247675.9,286047001.1,N
1504247695.8,286046997.7,N
1504247715.6,286046993.5,N
1504247735.4,286046996.0,N
1504247755.2,286046997.9,N
1504247775.1,286046998.3,N
1504247776.0,286046998.3,N
1504247795.8,286047002.1,N
1504247815.6,286047001.5,N
1504247835.5,286046998.7,N
1504247855.3,286046995.9,N
1504247875.1,286046994.0,N
1504247895.9,286046999.6,N
1504247915.7,286046995.5,N
1504247935.5,286046996.2,N
1504247955.4,286046994.5,N
1504247975.2,286046997.9,N
1504247995.0,286046994.1,N
1504247995.9,286046994.1,N
1504248015.8,286046993.3,N
1504248035.6,286046994.4,N
1504248055.4,286046997.7,N
1504248075.3,286047000.8,N
1504248095.1,286047000.6,N
1504248096.0,286047000.6,N
1504248115.8,286047003.0,N
1504248135.7,286047007.1,N
1504248155.5,286047003.5,N
1504248175.3,286047003.9,N
1504248195.1,286047003.3,N
1504248215.9,286047002.8,N
1504248235.7,286047002.7,N
1504248255.5,286046998.8,N
1504248275.4,286046997.1,N
1504248295.2,286046996.7,N
1504248315.0,286046996.1,N
1504248315.9,286046996.1,N
1504248335.8,286046996.0,N
1504248355.6,286046995.4,N
1504248375.4,286046998.9,N
1504248395.3,286046999.9,N
1504248415.1,286047003.2,N
1504248416.0,286047003.2,N
1504248435.8,286047000.1,N
1504248455.7,286047001.2,N
1504248475.5,286046998.5,N
1504248495.3,286046998.7,N
1504248515.2,286046996.8,N
1504248535.9,286046997.7,N
1504248555.7,286046995.7,N
1504248575.5,286046998.7,N
1504248595.4,286047001.3,N
1504248615.2,286047007.5,N
1504248635.1,286047010.5,P
1504248636.0,286047010.5,N
1504248655.8,286047006.8,N
1504248675.6,286047004.5,N
1504248695.4,286047002.2,N
1504248715.3,286047003.5,N
1504248735.1,286047003.0,N
1504248755.8,286047003.0,N
1504248775.7,286047005.8,N
1504248795.5,286047002.3,N
1504248815.3,286046998.4,N
1504248835.2,286046998.6,N
1504248855.9,286047004.4,N
1504248875.7,286046998.3,N
1504248895.6,286046997.4,N
1504248915.4,286046995.0,N
1504248935.2,286046998.2,N
1504248955.1,286046998.4,N
1504248956.0,286046998.4,N
1504248975.8,286047002.3,N
1504248995.6,286047005.7,N
1504249015.4,286047003.9,N
1504249035.3,286047004.0,N
1504249055.1,286047001.9,N
1504249075.8,286047005.2,N
1504249095.7,286047003.9,N
1504249115.5,286047006.4,N
1504249135.3,286047007.9,N
1504249155.2,286047008.3,N
1504249175.9,286047009.5,N
1504249195.7,286047009.3,N
